Weather History for CYVQ - December, 2012

Change the Weather History Date:

Saturday, December 8, 2012

  Actual Average Record
Temperature  
Mean Temperature -35 °F -  
Max Temperature -30 °F -8 °F 29 °F (2013)
Min Temperature -40 °F -22 °F -40 °F (2012)
Degree Days  
Heating Degree Days 100    
Moisture  
Dew Point -44 °F    
Average Humidity 64    
Maximum Humidity 68    
Minimum Humidity 47    
Precipitation  
Precipitation 0.00 in 0.02 in - ()
Sea Level Pressure  
Sea Level Pressure 30.50 in    
Wind  
Wind Speed 1 mph ()    
Max Wind Speed 8 mph    
Max Gust Speed -    
Visibility 20.0 miles    
Events Snow    
Averages and records for this station are not official NWS values.
T = Trace of Precipitation, MM = Missing Value Source: Averaged Metar Reports

Daily Weather History Graph

Daily Weather History Graph

Search for Another Location

Airport or City:

Trip Planner

Search our weather history database for the weather conditions in past years. The results will help you decide how hot, cold, wet, or windy it might be!

Date:

Astronomy

Dec. 08, 2012 Rise Set
Actual Time 11:24 AM MST 3:14 PM MST
Civil Twilight 9:59 AM MST 4:39 PM MST
Nautical Twilight 8:47 AM MST 5:51 PM MST
Astronomical Twilight 7:44 AM MST 6:53 PM MST
Moon 3:50 AM MST (12/8) 1:42 PM MST (12/8)
Length of Visible Light 6h 40m
Length of Day
3h 50m
Waning Crescent, 27% of the Moon is Illuminated
Dec 8
Waning Crescent
Dec 13
New
Dec 19
First Quarter
Dec 28
Full
Jan 4
Last Quarter

Hourly Weather History & Observations

Time (MST) Temp. Windchill Dew Point Humidity Pressure Visibility Wind Dir Wind Speed Gust Speed Precip Events Conditions
12:00 AM -34.6 °F - -41.8 °F 68% 30.50 in 30.0 mi Calm Calm - N/A   Ice Crystals
1:00 AM -32.8 °F - -40.0 °F 68% 30.51 in 30.0 mi Calm Calm - N/A   Ice Crystals
2:00 AM -32.8 °F - -40.0 °F 68% 30.52 in 20.0 mi ENE 2.3 mph - N/A   Ice Crystals
3:00 AM -34.6 °F - -41.8 °F 68% 30.51 in 20.0 mi Calm Calm - N/A   Ice Crystals
4:00 AM -34.6 °F - -43.6 °F 61% 30.52 in 20.0 mi Calm Calm - N/A   Ice Crystals
5:00 AM -34 °F - -41 °F 49% 30.52 in 28 mi Calm Calm - - Snow Snow
5:00 AM -34.6 °F - -41.8 °F 68% 30.52 in 30.0 mi Calm Calm - N/A   Ice Crystals
6:00 AM -36.4 °F - -43.6 °F 67% 30.52 in 30.0 mi Calm Calm - N/A   Ice Crystals
7:00 AM -34.6 °F - -41.8 °F 68% 30.51 in 30.0 mi Calm Calm - N/A   Ice Crystals
8:00 AM -36.4 °F - -43.6 °F 67% 30.51 in 30.0 mi Calm Calm - N/A   Ice Crystals
9:00 AM -36.4 °F - -43.6 °F 67% 30.51 in 30.0 mi Calm Calm - N/A   Ice Crystals
10:00 AM -36.4 °F - -43.6 °F 67% 30.53 in 30.0 mi Calm Calm - N/A   Ice Crystals
11:00 AM -35 °F - -43 °F 48% 30.52 in 28 mi Calm Calm - - Snow Snow
11:00 AM -34.6 °F - -41.8 °F 68% 30.52 in 30.0 mi Calm Calm - N/A   Ice Crystals
12:00 PM -38.2 °F - -45.4 °F 67% 30.53 in 30.0 mi Calm Calm - N/A   Scattered Clouds
1:00 PM -38.2 °F - -45.4 °F 67% 30.52 in 30.0 mi Calm Calm - N/A   Scattered Clouds
1:11 PM -36.4 °F - -43.6 °F 67% 30.52 in 30.0 mi Calm Calm - N/A   Ice Crystals
2:00 PM -36.4 °F - -45.4 °F 61% 30.54 in 30.0 mi Calm Calm - N/A   Ice Crystals
3:00 PM -38.2 °F - -45.4 °F 67% 30.53 in 30.0 mi Calm Calm - N/A   Ice Crystals
4:00 PM -38.2 °F - -45.4 °F 67% 30.52 in 30.0 mi Calm Calm - N/A   Ice Crystals
5:00 PM -40 °F - -47 °F 47% 30.52 in 28 mi Calm Calm - - Snow Snow
5:00 PM -40.0 °F - -47.2 °F 67% 30.51 in 30.0 mi Calm Calm - N/A   Ice Crystals
6:00 PM -38.2 °F - -47.2 °F 61% 30.50 in 30.0 mi Calm Calm - N/A   Ice Crystals
7:00 PM -38.2 °F - -47.2 °F 61% 30.50 in 30.0 mi Calm Calm - N/A   Ice Crystals
9:00 PM -38.2 °F - -45.4 °F 67% 30.45 in 20.0 mi Calm Calm - N/A   Ice Crystals
10:00 PM -34.6 °F -56.3 °F -41.8 °F 68% 30.42 in 20.0 mi SSE 8.1 mph - N/A   Ice Crystals
11:00 PM -34 °F - -41 °F 51% 30.39 in 28 mi SE 8.1 mph - - Snow Snow
11:00 PM -34.6 °F -56.3 °F -41.8 °F 68% 30.39 in 30.0 mi SE 8.1 mph - N/A   Ice Crystals